AAL1473 KCMH-KCLT

Flight info

Callsign AAL1473
Flight time 0h 59m
Altitude 35000
Route POBSE OHIOS LNDIZ PARQR4
Aircraft B738/M-SDE2E3FGHIRWXY/LB1

Departure

Time 2026-05-07 23:08
Airport John Glenn Columbus International Airport (KCMH)

Arrival

Time 2026-05-08 00:08
Airport Charlotte Douglas International Airport (KCLT)
Time Latitude Longitude Altitude Speed Heading
2026-05-07 22:40 39.99647 -82.88399 818 ft 0 kts
2026-05-07 22:59 39.99644 -82.88400 818 ft 3 kts
2026-05-07 22:59 39.99619 -82.88407 818 ft 4 kts 28°
2026-05-07 22:59 39.99599 -82.88428 813 ft 4 kts 59°
2026-05-07 23:00 39.99590 -82.88460 818 ft 4 kts 85°
2026-05-07 23:00 39.99590 -82.88495 818 ft 4 kts 97°
2026-05-07 23:00 39.99594 -82.88528 816 ft 2 kts 94°
2026-05-07 23:00 39.99595 -82.88558 814 ft 4 kts 94°
2026-05-07 23:01 39.99596 -82.88577 814 ft 1 kts 94°
2026-05-07 23:03 39.99596 -82.88575 814 ft 0 kts 94°
2026-05-07 23:03 39.99595 -82.88559 814 ft 4 kts 96°
2026-05-07 23:04 39.99591 -82.88510 818 ft 8 kts 96°
2026-05-07 23:04 39.99587 -82.88428 818 ft 10 kts 93°
2026-05-07 23:04 39.99571 -82.88336 812 ft 11 kts 134°
2026-05-07 23:04 39.99502 -82.88321 817 ft 10 kts 184°
2026-05-07 23:05 39.99432 -82.88327 819 ft 10 kts 176°
2026-05-07 23:05 39.99392 -82.88265 819 ft 10 kts 97°
2026-05-07 23:05 39.99387 -82.88178 819 ft 10 kts 94°
2026-05-07 23:05 39.99382 -82.88082 817 ft 13 kts 94°
2026-05-07 23:06 39.99373 -82.87930 821 ft 20 kts 94°
2026-05-07 23:06 39.99363 -82.87747 822 ft 20 kts 94°
2026-05-07 23:06 39.99353 -82.87569 820 ft 19 kts 94°
2026-05-07 23:06 39.99344 -82.87409 820 ft 13 kts 94°
2026-05-07 23:07 39.99303 -82.87322 819 ft 12 kts 171°
2026-05-07 23:07 39.99219 -82.87329 817 ft 12 kts 185°
2026-05-07 23:07 39.99166 -82.87389 818 ft 12 kts 269°
2026-05-07 23:07 39.99173 -82.87498 815 ft 15 kts 275°
2026-05-07 23:08 39.99196 -82.87919 815 ft 82 kts 274°
2026-05-07 23:08 39.99254 -82.88945 820 ft 143 kts 274°
2026-05-07 23:08 39.99329 -82.90410 1142 ft 166 kts 277°
2026-05-07 23:08 39.99378 -82.91826 2216 ft 157 kts 264°
2026-05-07 23:09 39.98890 -82.93187 2748 ft 179 kts 243°
2026-05-07 23:09 39.98188 -82.94680 3016 ft 206 kts 243°
2026-05-07 23:09 39.97369 -82.96339 3249 ft 227 kts 237°
2026-05-07 23:09 39.96044 -82.97550 3695 ft 246 kts 198°
2026-05-07 23:10 39.94303 -82.97438 4142 ft 265 kts 161°
2026-05-07 23:10 39.92714 -82.96089 4578 ft 282 kts 143°
2026-05-07 23:10 39.91128 -82.94562 5384 ft 283 kts 146°
2026-05-07 23:10 39.89495 -82.93107 6264 ft 285 kts 148°
2026-05-07 23:11 39.87822 -82.91715 7068 ft 287 kts 150°
2026-05-07 23:11 39.86094 -82.90354 7764 ft 293 kts 151°
2026-05-07 23:11 39.84318 -82.89010 8515 ft 297 kts 153°
2026-05-07 23:11 39.82502 -82.87674 9231 ft 302 kts 153°
2026-05-07 23:12 39.80653 -82.86337 9968 ft 306 kts 154°
2026-05-07 23:12 39.78754 -82.84983 10438 ft 320 kts 154°
2026-05-07 23:12 39.76723 -82.83549 10618 ft 344 kts 154°
2026-05-07 23:12 39.74568 -82.82035 10998 ft 358 kts 154°
2026-05-07 23:13 39.72362 -82.80485 11627 ft 363 kts 155°
2026-05-07 23:13 39.70129 -82.78917 12342 ft 367 kts 155°
2026-05-07 23:13 39.67872 -82.77336 13086 ft 370 kts 155°
2026-05-07 23:13 39.65596 -82.75744 13846 ft 374 kts 155°
2026-05-07 23:14 39.63295 -82.74137 14500 ft 378 kts 156°
2026-05-07 23:14 39.60963 -82.72510 15181 ft 382 kts 157°
2026-05-07 23:14 39.58606 -82.70867 15844 ft 387 kts 158°
2026-05-07 23:14 39.56219 -82.69205 16466 ft 392 kts 159°
2026-05-07 23:15 39.53800 -82.67520 17100 ft 397 kts 160°
2026-05-07 23:15 39.51354 -82.65819 17798 ft 401 kts 160°
2026-05-07 23:15 39.48887 -82.64106 18458 ft 404 kts 161°
2026-05-07 23:15 39.46378 -82.62620 18974 ft 398 kts 172°
2026-05-07 23:16 39.43723 -82.61838 19560 ft 387 kts 184°
2026-05-07 23:16 39.41077 -82.61695 20156 ft 376 kts 194°
2026-05-07 23:16 39.38472 -82.61959 20740 ft 376 kts 196°
2026-05-07 23:16 39.35856 -82.62258 21314 ft 379 kts 197°
2026-05-07 23:17 39.33218 -82.62561 21841 ft 383 kts 197°
2026-05-07 23:17 39.30546 -82.62859 22369 ft 387 kts 197°
2026-05-07 23:17 39.27857 -82.63149 22904 ft 390 kts 197°
2026-05-07 23:17 39.25137 -82.63433 23447 ft 393 kts 197°
2026-05-07 23:18 39.22402 -82.63714 23915 ft 396 kts 197°
2026-05-07 23:18 39.19647 -82.63993 24369 ft 398 kts 197°
2026-05-07 23:18 39.16885 -82.64271 24831 ft 399 kts 197°
2026-05-07 23:18 39.15046 -82.64456 25122 ft 401 kts 197°
2026-05-07 23:19 39.12258 -82.64738 25553 ft 403 kts 197°
2026-05-07 23:19 39.09450 -82.65022 25901 ft 406 kts 198°
2026-05-07 23:19 39.06624 -82.65308 26298 ft 409 kts 198°
2026-05-07 23:19 39.03786 -82.65594 26716 ft 410 kts 198°
2026-05-07 23:20 39.00935 -82.65881 27124 ft 412 kts 198°
2026-05-07 23:20 38.98069 -82.66169 27522 ft 414 kts 198°
2026-05-07 23:20 38.95190 -82.66458 27910 ft 416 kts 198°
2026-05-07 23:20 38.92294 -82.66749 28287 ft 418 kts 198°
2026-05-07 23:21 38.89387 -82.67041 28657 ft 420 kts 198°
2026-05-07 23:21 38.86466 -82.67335 28952 ft 423 kts 198°
2026-05-07 23:21 38.83467 -82.67364 29280 ft 442 kts 189°
2026-05-07 23:21 38.80363 -82.66751 29615 ft 461 kts 180°
2026-05-07 23:22 38.77242 -82.65489 29942 ft 481 kts 171°
2026-05-07 23:22 38.74145 -82.63813 30248 ft 486 kts 169°
2026-05-07 23:22 38.71043 -82.62046 30508 ft 489 kts 169°
2026-05-07 23:22 38.67933 -82.60252 30734 ft 492 kts 169°
2026-05-07 23:23 38.64809 -82.58459 30957 ft 492 kts 169°
2026-05-07 23:23 38.61682 -82.56681 31329 ft 491 kts 169°
2026-05-07 23:23 38.58564 -82.54928 31717 ft 488 kts 170°
2026-05-07 23:23 38.55452 -82.53195 32073 ft 487 kts 171°
2026-05-07 23:24 38.52305 -82.51457 32377 ft 487 kts 171°
2026-05-07 23:24 38.49231 -82.49767 32646 ft 487 kts 171°
2026-05-07 23:24 38.46075 -82.48035 32987 ft 486 kts 171°
2026-05-07 23:24 38.42975 -82.46332 33364 ft 485 kts 171°
2026-05-07 23:25 38.39876 -82.44630 33651 ft 484 kts 171°
2026-05-07 23:25 38.36777 -82.42932 33907 ft 485 kts 172°
2026-05-07 23:25 38.33673 -82.41234 34108 ft 486 kts 172°
2026-05-07 23:25 38.30605 -82.39554 34331 ft 486 kts 171°
2026-05-07 23:26 38.27504 -82.37856 34603 ft 485 kts 171°
2026-05-07 23:26 38.24404 -82.36158 34886 ft 484 kts 171°
2026-05-07 23:26 38.21300 -82.34463 34976 ft 488 kts 171°
2026-05-07 23:27 38.11880 -82.29329 34970 ft 486 kts 171°
2026-05-07 23:27 38.05699 -82.25953 34970 ft 482 kts 172°
2026-05-07 23:28 37.99539 -82.22611 34968 ft 482 kts 172°
2026-05-07 23:28 37.93379 -82.19276 34973 ft 482 kts 172°
2026-05-07 23:29 37.87216 -82.15944 34966 ft 482 kts 172°
2026-05-07 23:29 37.81050 -82.12615 34966 ft 482 kts 172°
2026-05-07 23:30 37.74912 -82.09307 34973 ft 483 kts 172°
2026-05-07 23:30 37.68717 -82.05974 34977 ft 484 kts 172°
2026-05-07 23:31 37.62517 -82.02701 34958 ft 485 kts 173°
2026-05-07 23:31 37.56318 -81.99308 34966 ft 486 kts 173°
2026-05-07 23:32 37.50131 -81.95996 34961 ft 487 kts 173°
2026-05-07 23:32 37.43889 -81.92669 34894 ft 488 kts 173°
2026-05-07 23:33 37.40755 -81.91001 34677 ft 492 kts 174°
2026-05-07 23:33 37.37593 -81.89322 34219 ft 492 kts 174°
2026-05-07 23:33 37.34441 -81.87640 33567 ft 491 kts 174°
2026-05-07 23:33 37.31298 -81.85963 32900 ft 491 kts 173°
2026-05-07 23:34 37.28173 -81.84295 32444 ft 485 kts 173°
2026-05-07 23:34 37.25081 -81.82645 32025 ft 481 kts 173°
2026-05-07 23:34 37.22012 -81.81016 31578 ft 477 kts 173°
2026-05-07 23:34 37.18971 -81.79405 31063 ft 472 kts 173°
2026-05-07 23:35 37.15964 -81.77813 30684 ft 467 kts 173°
2026-05-07 23:35 37.12977 -81.76249 30271 ft 460 kts 175°
2026-05-07 23:35 37.10006 -81.75106 30059 ft 439 kts 185°
2026-05-07 23:35 37.07065 -81.74564 30014 ft 418 kts 191°
2026-05-07 23:36 37.04231 -81.74163 30009 ft 402 kts 192°
2026-05-07 23:36 37.01499 -81.73784 29997 ft 388 kts 192°
2026-05-07 23:36 36.96136 -81.73078 30034 ft 395 kts 192°
2026-05-07 23:37 36.93376 -81.72727 29949 ft 406 kts 192°
2026-05-07 23:37 36.90676 -81.72369 29985 ft 413 kts 192°
2026-05-07 23:37 36.87825 -81.71967 29763 ft 410 kts 192°
2026-05-07 23:37 36.84997 -81.71552 29135 ft 410 kts 191°
2026-05-07 23:38 36.82173 -81.71139 28313 ft 409 kts 191°
2026-05-07 23:38 36.79441 -81.70784 27460 ft 406 kts 191°
2026-05-07 23:38 36.76639 -81.70412 26718 ft 407 kts 189°
2026-05-07 23:38 36.73877 -81.69997 26100 ft 404 kts 188°
2026-05-07 23:39 36.71271 -81.69596 25829 ft 397 kts 188°
2026-05-07 23:39 36.68574 -81.69187 25466 ft 393 kts 187°
2026-05-07 23:39 36.65890 -81.68788 25207 ft 386 kts 187°
2026-05-07 23:39 36.63229 -81.68405 24964 ft 388 kts 187°
2026-05-07 23:40 36.60635 -81.68045 24701 ft 394 kts 187°
2026-05-07 23:40 36.57970 -81.67675 24410 ft 396 kts 186°
2026-05-07 23:40 36.55248 -81.67287 24119 ft 393 kts 186°
2026-05-07 23:40 36.52540 -81.66897 23852 ft 390 kts 186°
2026-05-07 23:41 36.49849 -81.66512 23549 ft 390 kts 185°
2026-05-07 23:41 36.47156 -81.66129 23238 ft 389 kts 185°
2026-05-07 23:41 36.44480 -81.65749 22878 ft 387 kts 185°
2026-05-07 23:41 36.41819 -81.65370 22637 ft 385 kts 185°
2026-05-07 23:42 36.39171 -81.64995 22362 ft 384 kts 185°
2026-05-07 23:42 36.36519 -81.64621 22082 ft 384 kts 185°
2026-05-07 23:42 36.33865 -81.64246 21785 ft 384 kts 185°
2026-05-07 23:42 36.31218 -81.63871 21475 ft 381 kts 185°
2026-05-07 23:43 36.28596 -81.63498 21263 ft 379 kts 185°
2026-05-07 23:43 36.25977 -81.63129 20978 ft 378 kts 185°
2026-05-07 23:43 36.23363 -81.62762 20701 ft 378 kts 185°
2026-05-07 23:43 36.20748 -81.62393 20405 ft 378 kts 184°
2026-05-07 23:44 36.18134 -81.62025 20129 ft 378 kts 185°
2026-05-07 23:44 36.15531 -81.61612 19852 ft 380 kts 179°
2026-05-07 23:44 36.13020 -81.60402 19573 ft 394 kts 161°
2026-05-07 23:44 36.10640 -81.58763 19321 ft 389 kts 160°
2026-05-07 23:45 36.08351 -81.57173 19055 ft 386 kts 160°
2026-05-07 23:45 36.06013 -81.55562 18784 ft 386 kts 160°
2026-05-07 23:45 36.03658 -81.53958 18480 ft 389 kts 160°
2026-05-07 23:45 36.01285 -81.52356 18212 ft 388 kts 160°
2026-05-07 23:46 35.98958 -81.50792 17989 ft 386 kts 160°
2026-05-07 23:46 35.96601 -81.49211 17682 ft 385 kts 159°
2026-05-07 23:46 35.94251 -81.47639 17372 ft 383 kts 160°
2026-05-07 23:46 35.91912 -81.46074 17117 ft 381 kts 160°
2026-05-07 23:47 35.89588 -81.44522 16844 ft 380 kts 160°
2026-05-07 23:47 35.87265 -81.42971 16588 ft 378 kts 160°
2026-05-07 23:47 35.84966 -81.41437 16368 ft 377 kts 160°
2026-05-07 23:47 35.82665 -81.39902 16099 ft 374 kts 160°
2026-05-07 23:48 35.80452 -81.38425 15814 ft 365 kts 160°
2026-05-07 23:48 35.78260 -81.36961 15565 ft 354 kts 160°
2026-05-07 23:48 35.76166 -81.35514 15317 ft 345 kts 158°
2026-05-07 23:48 35.74108 -81.34038 15085 ft 340 kts 158°
2026-05-07 23:49 35.72077 -81.32572 14850 ft 338 kts 158°
2026-05-07 23:49 35.70048 -81.31114 14617 ft 338 kts 158°
2026-05-07 23:49 35.68021 -81.29662 14373 ft 337 kts 158°
2026-05-07 23:49 35.65994 -81.28214 14142 ft 337 kts 158°
2026-05-07 23:50 35.64072 -81.26842 13909 ft 336 kts 158°
2026-05-07 23:50 35.62066 -81.25413 13656 ft 336 kts 158°
2026-05-07 23:50 35.60103 -81.24016 13398 ft 335 kts 158°
2026-05-07 23:50 35.58107 -81.22592 13147 ft 330 kts 158°
2026-05-07 23:51 35.56217 -81.21239 12915 ft 326 kts 156°
2026-05-07 23:51 35.54314 -81.19749 12674 ft 323 kts 154°
2026-05-07 23:51 35.52445 -81.18241 12446 ft 319 kts 154°
2026-05-07 23:51 35.50599 -81.16761 12219 ft 316 kts 154°
2026-05-07 23:52 35.48768 -81.15303 12080 ft 312 kts 154°
2026-05-07 23:52 35.46961 -81.13868 12036 ft 306 kts 155°
2026-05-07 23:52 35.45214 -81.12483 12023 ft 296 kts 155°
2026-05-07 23:52 35.43525 -81.11145 12022 ft 287 kts 155°
2026-05-07 23:53 35.41958 -81.09912 12015 ft 297 kts 155°
2026-05-07 23:53 35.40127 -81.08645 12020 ft 309 kts 169°
2026-05-07 23:53 35.38026 -81.08231 12051 ft 303 kts 184°
2026-05-07 23:53 35.35927 -81.08071 12027 ft 301 kts 185°
2026-05-07 23:54 35.33844 -81.07914 12010 ft 299 kts 185°
2026-05-07 23:54 35.31792 -81.07747 12008 ft 298 kts 185°
2026-05-07 23:54 35.29731 -81.07569 12015 ft 296 kts 184°
2026-05-07 23:54 35.27710 -81.07391 12024 ft 295 kts 184°
2026-05-07 23:55 35.25666 -81.07210 12030 ft 294 kts 184°
2026-05-07 23:55 35.23599 -81.07026 12022 ft 294 kts 184°
2026-05-07 23:55 35.21588 -81.06847 12009 ft 293 kts 184°
2026-05-07 23:55 35.19559 -81.06664 11918 ft 285 kts 184°
2026-05-07 23:56 35.17661 -81.06492 11596 ft 279 kts 185°
2026-05-07 23:56 35.15850 -81.06334 11099 ft 279 kts 185°
2026-05-07 23:56 35.14047 -81.06176 10615 ft 278 kts 184°
2026-05-07 23:56 35.12245 -81.06017 10273 ft 273 kts 184°
2026-05-07 23:57 35.10537 -81.05860 10207 ft 258 kts 184°
2026-05-07 23:57 35.08927 -81.05714 10000 ft 250 kts 185°
2026-05-07 23:57 35.07267 -81.05569 9654 ft 248 kts 185°
2026-05-07 23:57 35.05687 -81.05472 9284 ft 243 kts 189°
2026-05-07 23:58 35.04065 -81.05537 8864 ft 242 kts 191°
2026-05-07 23:58 35.02438 -81.05645 8462 ft 241 kts 191°
2026-05-07 23:58 35.00763 -81.05757 8053 ft 241 kts 190°
2026-05-07 23:58 34.99096 -81.05854 7674 ft 239 kts 189°
2026-05-07 23:59 34.97432 -81.05925 7276 ft 239 kts 188°
2026-05-07 23:59 34.95769 -81.05955 6904 ft 239 kts 186°
2026-05-07 23:59 34.94104 -81.05941 6510 ft 240 kts 183°
2026-05-07 23:59 34.93003 -81.05719 6247 ft 247 kts 165°
2026-05-08 00:00 34.91567 -81.04531 5824 ft 257 kts 133°
2026-05-08 00:00 34.90791 -81.02586 5534 ft 257 kts 100°
2026-05-08 00:00 34.90800 -81.00467 5346 ft 248 kts 84°
2026-05-08 00:00 34.90997 -80.98389 5027 ft 246 kts 82°
2026-05-08 00:01 34.91403 -80.96408 4726 ft 238 kts 56°
2026-05-08 00:01 34.92234 -80.95244 4644 ft 220 kts 30°
2026-05-08 00:01 34.93384 -80.94422 4469 ft 214 kts 23°
2026-05-08 00:01 34.94475 -80.93737 4351 ft 208 kts 22°
2026-05-08 00:02 34.95522 -80.93098 4296 ft 196 kts 22°
2026-05-08 00:02 34.96450 -80.92529 4174 ft 189 kts 22°
2026-05-08 00:02 34.97527 -80.91869 3967 ft 187 kts 21°
2026-05-08 00:02 34.98783 -80.91605 3920 ft 183 kts 349°
2026-05-08 00:03 35.00010 -80.91837 3914 ft 174 kts 358°
2026-05-08 00:03 35.01179 -80.91810 3915 ft 164 kts 357°
2026-05-08 00:03 35.02330 -80.91884 3935 ft 167 kts 355°
2026-05-08 00:03 35.03488 -80.91980 3873 ft 167 kts 354°
2026-05-08 00:04 35.04618 -80.92077 3667 ft 164 kts 355°
2026-05-08 00:04 35.05704 -80.92170 3464 ft 159 kts 355°
2026-05-08 00:04 35.06791 -80.92264 3267 ft 155 kts 355°
2026-05-08 00:04 35.07865 -80.92357 3072 ft 156 kts 356°
2026-05-08 00:05 35.08948 -80.92450 2865 ft 155 kts 356°
2026-05-08 00:05 35.09995 -80.92540 2667 ft 146 kts 356°
2026-05-08 00:05 35.11010 -80.92628 2469 ft 149 kts 355°
2026-05-08 00:05 35.12035 -80.92717 2272 ft 146 kts 356°
2026-05-08 00:06 35.13030 -80.92802 2077 ft 143 kts 357°
2026-05-08 00:06 35.14002 -80.92886 1886 ft 138 kts 356°
2026-05-08 00:06 35.14943 -80.92967 1711 ft 134 kts 356°
2026-05-08 00:06 35.15876 -80.93047 1601 ft 135 kts 355°
2026-05-08 00:07 35.16820 -80.93149 1399 ft 138 kts 356°
2026-05-08 00:07 35.17803 -80.93240 1226 ft 143 kts
2026-05-08 00:07 35.18768 -80.93297 1056 ft 136 kts 359°
2026-05-08 00:07 35.19724 -80.93378 855 ft 142 kts 357°
2026-05-08 00:08 35.20705 -80.93465 722 ft 138 kts 356°
2026-05-08 00:08 35.21542 -80.93535 722 ft 93 kts 356°
2026-05-08 00:08 35.21977 -80.93572 727 ft 44 kts 356°
2026-05-08 00:08 35.22245 -80.93594 730 ft 31 kts 356°
2026-05-08 00:09 35.22387 -80.93613 729 ft 13 kts 332°
2026-05-08 00:09 35.22401 -80.93712 729 ft 11 kts 255°
2026-05-08 00:09 35.22334 -80.93739 729 ft 11 kts 176°
2026-05-08 00:09 35.22251 -80.93731 730 ft 14 kts 176°
2026-05-08 00:10 35.22135 -80.93722 729 ft 19 kts 176°
2026-05-08 00:10 35.22009 -80.93711 726 ft 12 kts 175°
2026-05-08 00:10 35.21943 -80.93756 726 ft 11 kts 228°
2026-05-08 00:10 35.21892 -80.93827 726 ft 11 kts 229°
2026-05-08 00:11 35.21849 -80.93901 726 ft 11 kts 258°
2026-05-08 00:11 35.21849 -80.93991 727 ft 10 kts 270°
2026-05-08 00:11 35.21856 -80.94077 723 ft 10 kts 284°
2026-05-08 00:11 35.21868 -80.94135 725 ft 6 kts 277°
2026-05-08 00:12 35.21862 -80.94179 723 ft 2 kts 254°
2026-05-08 00:12 35.21861 -80.94182 723 ft 0 kts 254°